Regional Weather Roundup
Issued by NWS Grand Forks, ND

Home | Current Version | Previous Version | Graphics & Text | Print | Product List | Glossary On
Versions: 1 2 3 4 5 6 7 8 9 10 11 12 13 14 15 16 17 18 19 20 21 22 23 24 25 26 27 28 29 30 31 32 33 34 35 36 37 38 39 40 41 42 43 44 45 46 47 48 49 50
000
ASUS43 KFGF 301910
RWRFGF
PRAIRIE TO PINES  WEATHER ROUNDUP
NATIONAL WEATHER SERVICE EASTERN NORTH DAKOTA/GRAND FORKS ND
200 PM CDT TUE AUG 30 2016

 **SATELLITE DATA USED TO AUGMENT SKY COVER AT AUTOMATED STATIONS**
 *****  WEATHER ACROSS EASTERN NORTH DAKOTA  *****

CITY           SKY/WX    TMP DP  RH WIND       PRES   REMARKS
GRAND FORKS    MOSUNNY   78  51  38 W3        30.22F
GRAND FRKS AFB SUNNY     77  51  40 N2        30.23F
GRAND FRKS NWS   N/A     77 N/A N/A N5          N/A
DEVILS LAKE    SUNNY     74  50  42 VRB6      30.26F
FARGO          SUNNY     79  52  38 CALM      30.23S
WAHPETON ARPT  CLEAR     79  45  29 N8        30.23S
$$

 ***** WEATHER ACROSS CENTRAL AND WESTERN NORTH DAKOTA  *****

CITY           SKY/WX    TMP DP  RH WIND       PRES   REMARKS
BISMARCK       SUNNY     81  45  28 SE7       30.23F
MINOT          SUNNY     81  43  26 SE12      30.23F
JAMESTOWN      SUNNY     78  50  37 VRB3      30.24F
MINOT AFB      SUNNY     82  45  27 S13       30.22F
GARRISON         N/A     80  47  31 SE10      30.23F
WILLISTON      CLOUDY    80  50  34 S13       30.15F
DICKINSON      CLOUDY    79  52  38 SE17      30.20F
HETTINGER      SUNNY     82  60  47 SE13      30.24F
$$

 *****  OTHER AIRPORT OBSERVATIONS IN OUR AREA  *****

CITY           SKY/WX    TMP DP  RH WIND       PRES   REMARKS
WALHALLA       NOT AVBL
GRAFTON AIRPOR FAIR      77  50  38 NW6       30.24F
VALLEY CITY AR FAIR      75  52  43 CALM      30.27F
CANDO          NOT AVBL
CAVALIER APRT  FAIR      73  50  43 W7        30.24S
GWINNER        FAIR      79  55  44 N7        30.25S
ROLLA            N/A     75  46  35 SW6       30.28S
 ***** THE ABOVE OBSERVATIONS ARE NON NWS ARE NOT QUALITY
       CONTROLLED AND MAY MIS-REPORT RAIN FOR SNOW...
$$

  *****  WEATHER ACROSS NORTHERN MINNESOTA  *****

CITY           SKY/WX    TMP DP  RH WIND       PRES   REMARKS
FLAG ISLAND    SUNNY     70  45  40 NW5       30.20S
WARROAD        SUNNY     72  55  56 W10       30.22F
ROSEAU         SUNNY     73  52  46 W8        30.23S
HALLOCK        SUNNY     73  48  40 NW5       30.22F
THF RVR FALLS  SUNNY     73  51  46 VRB6      30.24F
BAUDETTE       SUNNY     72  49  44 NW12      30.21F
WASKISH        SUNNY     72  52  49 W9        30.22F
CROOKSTON      SUNNY     75  48  38 NW5       30.24S
STEPHEN NDAWN    N/A     75  48  38 W9          N/A
GREENBUSH NDAW   N/A     77  46  33 NW9         N/A
$$
  *****  WEATHER ACROSS CENTRAL AND WEST MINNESOTA  *****

CITY           SKY/WX    TMP DP  RH WIND       PRES   REMARKS
FOSSTON        SUNNY     73  52  46 W7        30.25F
BEMIDJI        SUNNY     72  49  44 N10G16    30.23F
PARK RAPIDS    NOT AVBL
ELBOW LAKE     FAIR      75  52  44 NE7       30.23F
WADENA         SUNNY     73  52  46 NW8       30.22F
DETROIT LAKES  SUNNY     72  54  53 N7        30.26S
MOORHEAD       SUNNY     79  50  36 NW8       30.24S
FERGUS FALLS   SUNNY     75  52  43 N8        30.23F
MORRIS MN      SUNNY     79  50  36 CALM      30.22S
STAPLES        SUNNY     75  48  38 N6        30.22S
$$
  *****  WEATHER ELSEWHERE ACROSS MINNESOTA  *****

CITY           SKY/WX    TMP DP  RH WIND       PRES   REMARKS
DULUTH         SUNNY     75  52  44 N9        30.17F
INTRNTL FALLS  SUNNY     72  51  47 NW10      30.19F
ELY            SUNNY     70  46  43 NW6       30.17F
CLOQUET        SUNNY     73  48  40 NW8       30.18F
WHEATON        SUNNY     81  54  39 N7        30.23F
BRAINERD       SUNNY     74  50  42 N6        30.21F
HIBBING        SUNNY     69  47  45 N8        30.20S
ALEXANDRIA     SUNNY     76  49  38 N6        30.24F
SAINT CLOUD    MOSUNNY   75  52  44 NW5       30.20F
MINNEAPOLIS    CLOUDY    77  59  53 VRB3      30.18F
$$

  *****  WEATHER ACROSS SOUTH DAKOTA  *****

CITY           SKY/WX    TMP DP  RH WIND       PRES   REMARKS
SIOUX FALLS    CLOUDY    82  70  66 NE7       30.20F
BROOKINGS      MOSUNNY   77  64  64 VRB7      30.23S
WATERTOWN      MOSUNNY   80  57  45 NE6       30.23F
HURON          MOSUNNY   84  69  60 E9        30.18F
SISSETON         N/A     80  52  37 VRB3      30.22S
ABERDEEN       SUNNY     82  56  40 NE10      30.22S
MITCHELL       SUNNY     85  67  54 CALM      30.19F
PIERRE         SUNNY     84  68  58 SE10G18   30.17F
MOBRIDGE       MOSUNNY   86  54  33 SE12G22   30.18F
RAPID CITY     SUNNY     80  65  59 SE14G21   30.23F
$$

  *****  SOME WEATHER IN NEARBY STATES *****

CITY           SKY/WX    TMP DP  RH WIND       PRES   REMARKS
GLASGOW MT     SUNNY     78  52  40 E9        30.09F
GREAT FALLS MT MOSUNNY   82  47  29 VRB3      30.10F
CHEYENNE WY    CLOUDY    68  51  54 SE9       30.37F
SCOTTSBLUFF NE SUNNY     81  59  47 SE10      30.26F
OMAHA NE       CLOUDY    78  68  71 SE6       30.17F
DES MOINES IA  CLOUDY    81  70  69 N6        30.15F
DAVENPORT IA   MOSUNNY   83  72  69 VRB5      30.12F
CHICAGO IL     PTSUNNY   81  70  69 S5        30.09F
EAU CLAIRE WI  MOSUNNY   79  65  62 N6        30.14S
LA CROSSE WI   MOSUNNY   82  64  54 NW6       30.12F
$$

  *****  SOME NATIONAL WEATHER *****

CITY           SKY/WX    TMP DP  RH WIND       PRES   REMARKS
LA GUARDIA NY  MOSUNNY   86  60  41 SW9       30.08F
RALEIGH NC     MOSUNNY   91  65  41 E8        30.05F HX  93
ATLANTA GA     PTSUNNY   87  67  51 E10       30.06F HX  90
NEW ORLEANS LA MOSUNNY   94  77  57 NE13G22   29.93F HX 108
OKLAHOMA CITY  PTSUNNY   93  64  38 SE7       30.10F HX  94
ALBUQUERQUE NM PTSUNNY   76  49  38 E9G17     30.30F
SALT LAKE CITY MOSUNNY   93  36  13 S12G20    30.11F
LOS ANGELES CA MOSUNNY   78  64  61 W10       29.86F
BOISE ID       CLOUDY    80  40  23 NE6       29.98F
SEATTLE WA     CLOUDY    64  51  62 SW8       30.03R
$$

*** WEATHER ACROSS MANITOBA...SASKATCHEWAN AND ONTARIO ***
                ***ONTARIO***

CITY           SKY/WX    TMP DP  RH WIND       PRES   REMARKS
GERALDTON      CLOUDY    66  52  59 NW8       30.05S
THUNDER BAY    SUNNY     75  48  38 NW10      30.09F
SIOUX LOOKOUT  MOSUNNY   68  50  52 NW14G21   30.15S
TORONTO        MOSUNNY   86  61  42 SW13G20   30.05F
BIG TROUT LK   CLOUDY    57  52  82 NW10G22   30.00R
PICKLE LAKE    PTSUNNY   66  52  59 W13G18    30.07R
DRYDEN         SUNNY     70  45  40 W12G17    30.17S
KENORA         MOSUNNY   68  43  40 NW13      30.21S
$$
                *** MANITOBA***

CITY           SKY/WX    TMP DP  RH WIND       PRES   REMARKS
BRANDON        PTSUNNY   72  46  40 VRB3      30.24F
DAUPHIN        SUNNY     70  45  40 VRB3      30.24F
ISLAND LAKE    CLOUDY    59  54  82 NW13G20   30.15R
PILOT MOUND      N/A     72  46  40 W6          N/A
THE PAS        PTSUNNY   63  52  67 NW7       30.25S
THOMPSON       CLOUDY    57  48  72 N13       30.23R
WINNIPEG       MOSUNNY   73  43  33 VRB9      30.22F
LYNN LAKE      CLOUDY    57  50  77 MISG      30.28S
CHURCHILL      CLOUDY    52  46  82 N24       30.20R
$$
                ***SASKATCHEWAN***

CITY           SKY/WX    TMP DP  RH WIND       PRES   REMARKS
ESTEVAN        PTSUNNY   81  46  30 SE12G22   30.19F
KINDERSLEY     MOSUNNY   72  48  43 E18G25    30.17F
LLOYDMINSTER   MOSUNNY   66  48  52 SE16      30.23S
PRINCE ALBERT  PTSUNNY   63  45  51 NE5       30.28S
REGINA         MOSUNNY   77  48  36 E12G17    30.18F
YORKTON        SUNNY     70  46  43 SW3       30.26F
N. BATTLEFORD  SUNNY     68  45  42 E17G23    30.25F
LA RONGE       PTSUNNY   59  48  67 N6        30.30F
SASKATOON      MOSUNNY   70  45  40 E13       30.26F
SWIFT CURRENT  SUNNY     73  54  49 E16G25    30.14F
$$
NOTE: THESE ARE AUTOMATED STATIONS WITH LIMITED QUALITY CONTROL
      "FAIR" INDICATES FEW OR NO CLOUDS BELOW 12,000 FEET WITH NO
      SIGNIFICANT WEATHER AND/OR OBSTRUCTIONS TO VISIBILITY.
      SKY/WX - SKY CONDITION AND SIGNIFICANT WEATHER.
      TMP - AIR TEMPERATURE.    DP   - DEWPOINT TEMPERATURE.
      RH  - RELATIVE HUMIDITY.  PRES - PRESSURE.
      HX  - HEAT INDEX.         WCI  - WIND CHILL INDEX.
$




USA.gov is the U.S. government's official web portal to all federal, state and local government web resources and services.